Greenwood, MS

7:47 PM CDT on August 29, 2016 (GMT -0500)
Greenwood-Leflore

Weather History for KGWO - October, 2012

Change the Weather History Date:

Tuesday, October 2, 2012

  Actual Average Record
Temperature  
Mean Temperature 62 °F 69 °F  
Max Temperature 73 °F 82 °F 95 °F (1954)
Min Temperature 50 °F 56 °F 37 °F (2011)
Degree Days  
Heating Degree Days 3 2  
Month to date heating degree days 7 3  
Since 1 July heating degree days 14 15  
Cooling Degree Days 0 5  
Month to date cooling degree days 0 11  
Year to date cooling degree days 2172 2058  
Growing Degree Days 12 (Base 50)    
Moisture  
Dew Point 53 °F    
Average Humidity 75    
Maximum Humidity 100    
Minimum Humidity 49    
Precipitation  
Precipitation 0.00 in 0.13 in 1.78 in (2014)
Month to date precipitation 0.24 0.25  
Year to date precipitation 34.47 37.98  
Sea Level Pressure  
Sea Level Pressure 29.84 in    
Wind  
Wind Speed 2 mph (NW)    
Max Wind Speed 9 mph    
Max Gust Speed 20 mph    
Visibility 5 miles    
Events Fog    
T = Trace of Precipitation, MM = Missing Value Source: NWS Daily Summary

Daily Weather History Graph

Daily Weather History Graph

Search for Another Location

Airport or City:

Trip Planner

Search our weather history database for the weather conditions in past years. The results will help you decide how hot, cold, wet, or windy it might be!

Date:

Astronomy

Oct. 02, 2012 Rise Set
Actual Time 6:55 AM CDT 6:42 PM CDT
Civil Twilight 6:30 AM CDT 7:07 PM CDT
Nautical Twilight 6:02 AM CDT 7:36 PM CDT
Astronomical Twilight 5:33 AM CDT 8:05 PM CDT
Moon 8:06 PM CDT (10/2) 9:13 AM CDT (10/2)
Length of Visible Light 12h 36m
Length of Day
11h 46m
Waning Gibbous, 94% of the Moon is Illuminated
Oct 2
Waning Gibbous
Oct 8
Last Quarter
Oct 15
New
Oct 21
First Quarter
Oct 29
Full

Hourly Weather History & Observations

Time (CDT) Temp. Dew Point Humidity Pressure Visibility Wind Dir Wind Speed Gust Speed Precip Events Conditions
12:53 AM 57.9 °F 55.9 °F 93% 29.74 in 10.0 mi North 3.5 mph - N/A   Clear
1:53 AM 57.9 °F 55.0 °F 90% 29.74 in 10.0 mi NW 4.6 mph - N/A   Clear
2:53 AM 55.0 °F 54.0 °F 96% 29.75 in 4.0 mi Calm Calm - N/A   Clear
3:02 AM 53.6 °F 53.6 °F 100% 29.76 in 1.8 mi Calm Calm - N/A   Clear
3:25 AM 53.6 °F 51.8 °F 94% 29.76 in 0.8 mi Calm Calm - N/A   Mist
3:37 AM 53.6 °F 53.6 °F 100% 29.77 in 1.2 mi Calm Calm - N/A   Partly Cloudy
3:53 AM 53.1 °F 53.1 °F 100% 29.77 in 1.8 mi Calm Calm - N/A   Partly Cloudy
3:59 AM 53.6 °F 51.8 °F 94% 29.77 in 0.8 mi Calm Calm - N/A   Mist
4:10 AM 53.6 °F 53.6 °F 100% 29.77 in 0.2 mi Calm Calm - N/A Fog Fog
4:30 AM 51.8 °F 51.8 °F 100% 29.78 in 1.0 mi Calm Calm - N/A   Mist
4:32 AM 51.8 °F 51.8 °F 100% 29.78 in 2.0 mi Calm Calm - N/A   Scattered Clouds
4:39 AM 53.6 °F 51.8 °F 94% 29.78 in 5.0 mi Calm Calm - N/A   Partly Cloudy
4:53 AM 53.1 °F 52.0 °F 96% 29.78 in 3.0 mi Calm Calm - N/A   Clear
5:01 AM 51.8 °F 51.8 °F 100% 29.78 in 1.8 mi Calm Calm - N/A   Clear
5:12 AM 51.8 °F 51.8 °F 100% 29.79 in 0.5 mi Calm Calm - N/A Fog Fog
5:23 AM 51.8 °F 51.8 °F 100% 29.80 in 2.0 mi Calm Calm - N/A   Clear
5:37 AM 51.8 °F 51.8 °F 100% 29.80 in 0.8 mi Calm Calm - N/A   Mist
5:53 AM 51.1 °F 51.1 °F 100% 29.81 in 1.0 mi Calm Calm - N/A   Clear
5:58 AM 50.0 °F 50.0 °F 100% 29.81 in 0.8 mi Calm Calm - N/A   Mist
6:15 AM 51.8 °F 50.0 °F 94% 29.82 in 1.2 mi Calm Calm - N/A   Partly Cloudy
6:42 AM 51.8 °F 50.0 °F 94% 29.83 in 0.8 mi Calm Calm - N/A   Mist
6:53 AM 51.1 °F 51.1 °F 100% 29.83 in 0.5 mi Calm Calm - N/A Fog Fog
7:19 AM 50.0 °F 50.0 °F 100% 29.84 in 1.0 mi Calm Calm - N/A   Mist
7:28 AM 51.8 °F 51.8 °F 100% 29.85 in 2.0 mi Calm Calm - N/A   Scattered Clouds
7:53 AM 54.0 °F 54.0 °F 100% 29.86 in 3.0 mi Calm Calm - N/A   Clear
8:53 AM 57.9 °F 53.1 °F 84% 29.88 in 10.0 mi NW 6.9 mph - N/A   Clear
9:53 AM 62.1 °F 54.0 °F 75% 29.89 in 10.0 mi North 4.6 mph - N/A   Clear
10:53 AM 66.0 °F 55.9 °F 70% 29.89 in 10.0 mi WNW 4.6 mph - N/A   Clear
11:53 AM 68.0 °F 55.0 °F 63% 29.89 in 10.0 mi Calm Calm - N/A   Clear
12:53 PM 71.1 °F 55.0 °F 57% 29.90 in 10.0 mi Variable 4.6 mph - N/A   Clear
1:53 PM 71.1 °F 53.1 °F 53% 29.88 in 10.0 mi Variable 4.6 mph - N/A   Partly Cloudy
2:53 PM 73.0 °F 55.0 °F 53% 29.87 in 10.0 mi Variable 3.5 mph - N/A   Clear
3:53 PM 73.0 °F 54.0 °F 51% 29.88 in 10.0 mi NW 6.9 mph - N/A   Clear
4:53 PM 73.0 °F 54.0 °F 51% 29.88 in 10.0 mi Variable 4.6 mph - N/A   Clear
5:53 PM 71.1 °F 55.0 °F 57% 29.89 in 10.0 mi Calm Calm - N/A   Clear
6:53 PM 62.6 °F 57.2 °F 82% 29.91 in 10.0 mi Calm Calm - N/A   Clear
7:53 PM 60.1 °F 59.0 °F 96% 29.93 in 9.0 mi Calm Calm - N/A   Clear
8:53 PM 59.0 °F 57.9 °F 96% 29.95 in 7.0 mi Calm Calm - N/A   Clear
9:53 PM 57.0 °F 55.9 °F 96% 29.96 in 6.0 mi Calm Calm - N/A   Clear
10:53 PM 55.9 °F 55.9 °F 100% 29.97 in 6.0 mi Calm Calm - N/A   Clear
11:53 PM 55.0 °F 55.0 °F 100% 29.98 in 6.0 mi Calm Calm - N/A   Clear